This demonstration page uses our WeatherBlox Daily Observations layout. Learn more.

Left ArrowRight Arrow

Hourly Observations for September 27, 2021

Temp ( °F °C ) Dew Point ( °F °C ) Humidity (%) Winds ( mph kmh ) Pressure ( in mb ) Visibility ( mi km ) Precip ( " mm )
12:15 am 00:15 Clear 55 13 48 9 77 77 WNW 6 9 29.80 1009 10 16 N/A
12:35 am 00:35 Clear 55 12.6 49 9.2 80 80 WNW 6 9 29.81 1009 10 16 N/A
12:55 am 00:55 Clear 55 12.5 48 8.8 78 78 WNW 6 9 29.81 1009 10 16 N/A
1:15 am 01:15 Clear 55 13 48 8.8 76 76 W 3 6 29.80 1009 10 16 N/A
1:35 am 01:35 Clear 55 12.6 47 8.4 76 76 N N/A 29.81 1009 10 16 N/A
1:55 am 01:55 Clear 53 11.4 47 8.3 81 81 WNW 6 9 29.83 1010 10 16 N/A
2:15 am 02:15 Clear 52 11.2 47 8.4 83 83 WNW 6 9 29.83 1010 10 16 N/A
2:35 am 02:35 Clear 53 11.5 48 8.7 83 83 NW 8 13 29.83 1010 10 16 N/A
2:55 am 02:55 Clear 52 11.3 47 8.2 81 81 NW 7 11 29.83 1010 10 16 N/A
3:15 am 03:15 Clear 51 10.8 46 8 83 83 NW 8 13 29.83 1010 10 16 N/A
3:35 am 03:35 Clear 50 10.2 46 7.7 85 85 WNW 7 11 29.84 1010 10 16 N/A
3:55 am 03:55 Clear 51 10.6 46 7.7 82 82 WNW 7 11 29.84 1010 10 16 N/A
4:15 am 04:15 Clear 52 11 47 8.2 83 83 W 5 7 29.83 1010 10 16 N/A
4:35 am 04:35 Clear 51 10.3 46 7.6 84 84 WNW 6 9 29.84 1010 10 16 N/A
4:55 am 04:55 Clear 51 10.4 47 8.1 86 86 W 5 7 29.84 1010 10 16 N/A
5:15 am 05:15 Clear 49 9.6 46 7.5 87 87 WNW 8 13 29.85 1011 10 16 N/A
5:35 am 05:35 Clear 49 9.5 45 7.3 86 86 NW 8 13 29.87 1011 10 16 N/A
5:55 am 05:55 Clear 48 9.1 45 7.4 89 89 N N/A 29.87 1011 10 16 N/A
6:15 am 06:15 Clear 48 9 45 7.3 89 89 W 5 7 29.87 1012 10 16 N/A
6:35 am 06:35 Clear 48 9 45 7.2 89 89 W 6 9 29.87 1012 10 16 N/A
6:55 am 06:55 Clear 48 8.7 45 7 89 89 WNW 5 7 29.87 1012 10 16 N/A
7:15 am 07:15 Clear 46 8 44 6.6 91 91 W 3 6 29.89 1012 10 16 N/A
7:35 am 07:35 Sunny 47 8.4 44 6.9 90 90 WNW 3 6 29.89 1012 10 16 N/A
7:55 am 07:55 Sunny 47 8.2 44 6.8 91 91 W 6 9 29.90 1012 7 11 N/A
8:15 am 08:15 Sunny 49 9.2 46 7.7 90 90 WNW 3 6 29.90 1012 7 11 N/A
8:35 am 08:35 Sunny 53 11.5 47 8.5 82 82 WNW 6 9 29.88 1012 10 16 N/A
8:55 am 08:55 Sunny 56 13.1 48 9.1 77 77 NW 7 11 29.87 1012 10 16 N/A
9:15 am 09:15 Sunny 59 15 48 9.1 68 68 NW 8 13 29.86 1011 7 11 N/A
9:35 am 09:35 Sunny 63 17.3 49 9.7 61 61 WNW 5 7 29.85 1011 10 16 N/A
9:55 am 09:55 Sunny 67 19.3 50 10 55 55 WNW 3 6 29.83 1010 7 11 N/A
10:15 am 10:15 Sunny 70 21.2 51 10.7 51 51 WNW 3 6 29.81 1010 7 11 N/A
10:35 am 10:35 Sunny 75 24.1 50 10.2 42 42 N N/A 29.78 1008 10 16 N/A
10:55 am 10:55 Sunny 78 25.6 50 10.2 38 38 E 3 6 29.78 1008 10 16 N/A
11:15 am 11:15 Sunny 80 26.8 52 11 37 37 E 3 6 29.77 1008 10 16 N/A
11:35 am 11:35 Sunny 82 28 51 10.5 34 34 E 3 6 29.76 1008 10 16 N/A
11:55 am 11:55 Sunny 85 29.2 51 10.8 32 32 ESE 6 9 29.75 1007 10 16 N/A
12:15 pm 12:15 Sunny 86 30.2 51 10.6 30 30 SE 5 7 29.73 1007 10 16 N/A
12:35 pm 12:35 Sunny 88 30.9 49 9.7 27 27 E 8 13 29.72 1007 10 16 N/A
12:55 pm 12:55 Sunny 90 32 49 9.4 25 25 ESE 7 11 29.71 1006 10 16 N/A
1:15 pm 13:15 Sunny 90 32.3 49 9.2 24 24 ESE 7 11 29.71 1006 10 16 N/A
1:35 pm 13:35 Sunny 91 32.7 48 9 23 23 ESE 8 13 29.71 1006 10 16 N/A
1:55 pm 13:55 Sunny 91 32.7 48 9.1 23 23 E 7 11 29.70 1006 10 16 N/A
2:15 pm 14:15 Sunny 91 33 47 8.5 22 22 ESE 8 13 29.69 1005 10 16 N/A
2:35 pm 14:35 Sunny 93 33.7 46 7.8 20 20 ESE 10 17 29.68 1005 10 16 N/A
2:55 pm 14:55 Sunny 93 33.8 46 7.5 20 20 ESE 8 13 29.67 1005 10 16 N/A
3:15 pm 15:15 Sunny 93 33.8 48 9.1 22 22 E 9 15 29.66 1004 10 16 N/A
3:35 pm 15:35 Sunny 93 33.7 48 9 22 22 SE 10 17 29.66 1004 10 16 N/A
3:55 pm 15:55 Sunny 93 34.1 46 7.6 19 19 ESE 12 19 29.66 1004 10 16 N/A
4:15 pm 16:15 Sunny 92 33.6 44 6.7 19 19 ESE 12 19 29.66 1004 10 16 N/A
4:35 pm 16:35 Sunny 93 33.7 46 7.9 20 20 ESE 13 20 29.65 1004 10 16 N/A
4:55 pm 16:55 Sunny 92 33.5 46 8 21 21 SE 13 20 29.65 1004 10 16 N/A
5:15 pm 17:15 Sunny 92 33.1 47 8.6 22 22 ESE 12 19 29.66 1004 10 16 N/A
5:35 pm 17:35 Sunny 91 32.7 49 9.3 24 24 ESE 6 9 29.66 1004 10 16 N/A
5:55 pm 17:55 Sunny 90 32.2 48 9 24 24 ESE 7 11 29.66 1004 10 16 N/A
6:15 pm 18:15 Sunny 89 31.5 48 8.9 25 25 ESE 10 17 29.68 1005 10 16 N/A
6:35 pm 18:35 Sunny 87 30.4 49 9.7 28 28 ESE 9 15 29.69 1005 10 16 N/A
6:55 pm 18:55 Sunny 85 29.3 50 10 30 30 ESE 8 13 29.70 1006 10 16 N/A
7:15 pm 19:15 Sunny 81 27.4 51 10.5 35 35 ESE 8 13 29.71 1006 10 16 N/A
7:35 pm 19:35 Clear 78 25.5 51 10.6 39 39 E 6 9 29.74 1007 10 16 N/A
7:55 pm 19:55 Clear 78 25.3 51 10.6 40 40 ESE 8 13 29.74 1007 10 16 N/A
8:15 pm 20:15 Clear 75 24 51 10.7 43 43 ESE 7 11 29.76 1008 10 16 N/A
8:35 pm 20:35 Clear 74 23.2 51 10.8 46 46 ESE 8 13 29.77 1008 7 11 N/A
8:55 pm 20:55 Clear 69 20.4 52 10.9 55 55 ESE 5 7 29.79 1009 10 16 N/A
9:15 pm 21:15 Clear 69 20.5 51 10.8 54 54 ESE 3 6 29.80 1009 10 16 N/A
9:35 pm 21:35 Clear 65 18.1 52 10.9 63 63 N N/A 29.82 1010 7 11 N/A
9:55 pm 21:55 Hazy 61 16.1 51 10.6 70 70 N N/A 29.84 1010 4 6 N/A
10:15 pm 22:15 Hazy 62 16.6 51 10.5 67 67 N N/A 29.83 1010 5 8 N/A
10:35 pm 22:35 Hazy 59 14.9 50 10.2 74 74 N N/A 29.85 1011 5 8 N/A
10:55 pm 22:55 Clear 59 15 51 10.3 74 74 N N/A 29.85 1011 10 16 N/A
11:15 pm 23:15 Clear 59 14.9 51 10.7 76 76 N N/A 29.85 1011 10 16 N/A
11:35 pm 23:35 Clear 57 13.7 50 10.2 80 80 N N/A 29.86 1011 10 16 N/A
11:55 pm 23:55 Clear 56 13.2 50 10 81 81 N N/A 29.86 1011 10 16 N/A

Powered by AerisWeather